Time,TemperatureF,DewpointF,PressureIn,WindDirection,WindDirectionDegrees,WindSpeedMPH,WindSpeedGustMPH,Humidity,HourlyPrecipIn,Conditions,Clouds,dailyrainin,SoftwareType,DateUTC
2013-09-05 00:14:00,51.9,45.0,29.91,WSW,247,0.0,0.0,78,0.00,,,0.00,weatherlink.com 1.10,2013-09-05 06:14:00,
2013-09-05 00:29:00,52.1,46.0,29.92,SSE,163,0.0,1.0,80,0.00,,,0.00,weatherlink.com 1.10,2013-09-05 06:29:00,
2013-09-05 00:44:00,50.6,46.0,29.92,SSE,166,2.0,3.0,83,0.00,,,0.00,weatherlink.com 1.10,2013-09-05 06:44:00,
2013-09-05 01:00:00,49.7,45.0,29.93,SSE,166,0.0,0.0,85,0.00,,,0.00,weatherlink.com 1.10,2013-09-05 07:00:00,
2013-09-05 01:15:00,49.5,46.0,29.93,SSE,166,2.0,3.0,86,0.00,,,0.00,weatherlink.com 1.10,2013-09-05 07:15:00,
2013-09-05 01:30:00,49.5,46.0,29.92,SSE,166,0.0,0.0,87,0.00,,,0.00,weatherlink.com 1.10,2013-09-05 07:30:00,
2013-09-05 01:45:00,49.6,46.0,29.92,SSE,166,0.0,0.0,87,0.00,,,0.00,weatherlink.com 1.10,2013-09-05 07:45:00,
2013-09-05 02:03:00,49.7,45.0,29.92,SSE,166,0.0,0.0,84,0.00,,,0.00,weatherlink.com 1.10,2013-09-05 08:03:00,
2013-09-05 02:15:00,50.0,45.0,29.92,SSE,166,0.0,0.0,84,0.00,,,0.00,weatherlink.com 1.10,2013-09-05 08:15:00,
2013-09-05 02:30:00,50.2,45.0,29.93,SSE,166,0.0,0.0,82,0.00,,,0.00,weatherlink.com 1.10,2013-09-05 08:30:00,
2013-09-05 02:45:00,50.7,45.0,29.92,SSE,166,0.0,0.0,81,0.00,,,0.00,weatherlink.com 1.10,2013-09-05 08:45:00,
2013-09-05 03:00:00,50.9,45.0,29.92,SSE,166,0.0,0.0,81,0.00,,,0.00,weatherlink.com 1.10,2013-09-05 09:00:00,
2013-09-05 03:15:00,50.5,45.0,29.92,SSE,166,0.0,0.0,82,0.00,,,0.00,weatherlink.com 1.10,2013-09-05 09:15:00,
2013-09-05 03:30:00,50.3,45.0,29.92,SSE,166,0.0,0.0,83,0.00,,,0.00,weatherlink.com 1.10,2013-09-05 09:30:00,
2013-09-05 03:45:00,50.4,45.0,29.92,SSE,166,0.0,2.0,82,0.00,,,0.00,weatherlink.com 1.10,2013-09-05 09:45:00,
2013-09-05 04:00:00,50.8,45.0,29.92,SSE,166,0.0,0.0,81,0.00,,,0.00,weatherlink.com 1.10,2013-09-05 10:00:00,
2013-09-05 04:15:00,51.2,45.0,29.93,SSE,166,0.0,1.0,79,0.00,,,0.00,weatherlink.com 1.10,2013-09-05 10:15:00,
2013-09-05 04:30:00,52.1,45.0,29.93,SSE,166,0.0,3.0,77,0.00,,,0.00,weatherlink.com 1.10,2013-09-05 10:30:00,
2013-09-05 04:45:00,51.9,46.0,29.93,SSE,166,0.0,0.0,79,0.00,,,0.00,weatherlink.com 1.10,2013-09-05 10:45:00,
2013-09-05 05:00:00,51.3,46.0,29.93,SSE,166,0.0,2.0,81,0.00,,,0.00,weatherlink.com 1.10,2013-09-05 11:00:00,
2013-09-05 05:15:00,50.5,45.0,29.93,SSE,166,0.0,0.0,82,0.00,,,0.00,weatherlink.com 1.10,2013-09-05 11:15:00,
2013-09-05 05:30:00,50.1,45.0,29.93,SSE,166,0.0,0.0,83,0.00,,,0.00,weatherlink.com 1.10,2013-09-05 11:30:00,
2013-09-05 05:45:00,49.6,45.0,29.93,SSE,166,0.0,0.0,83,0.00,,,0.00,weatherlink.com 1.10,2013-09-05 11:45:00,
2013-09-05 06:00:00,49.4,44.0,29.93,SSE,166,0.0,0.0,83,0.00,,,0.00,weatherlink.com 1.10,2013-09-05 12:00:00,
2013-09-05 06:15:00,49.0,44.0,29.94,SSE,166,0.0,0.0,84,0.00,,,0.00,weatherlink.com 1.10,2013-09-05 12:15:00,
2013-09-05 06:30:00,49.0,45.0,29.94,SSE,166,0.0,0.0,85,0.00,,,0.00,weatherlink.com 1.10,2013-09-05 12:30:00,
2013-09-05 06:45:00,49.1,45.0,29.94,SSE,166,0.0,0.0,84,0.00,,,0.00,weatherlink.com 1.10,2013-09-05 12:45:00,
2013-09-05 07:00:00,48.5,44.0,29.94,SSE,166,0.0,0.0,85,0.00,,,0.00,weatherlink.com 1.10,2013-09-05 13:00:00,
2013-09-05 07:16:00,48.9,45.0,29.95,SSE,166,0.0,0.0,86,0.00,,,0.00,weatherlink.com 1.10,2013-09-05 13:16:00,
2013-09-05 07:31:00,49.8,46.0,29.94,SSE,166,0.0,0.0,86,0.00,,,0.00,weatherlink.com 1.10,2013-09-05 13:31:00,
2013-09-05 07:46:00,51.4,46.0,29.95,SSE,166,0.0,3.0,82,0.00,,,0.00,weatherlink.com 1.10,2013-09-05 13:46:00,
2013-09-05 08:01:00,52.6,46.0,29.95,SSE,166,0.0,0.0,79,0.00,,,0.00,weatherlink.com 1.10,2013-09-05 14:01:00,
2013-09-05 08:16:00,54.1,47.0,29.96,SSE,166,0.0,5.0,78,0.00,,,0.00,weatherlink.com 1.10,2013-09-05 14:16:00,
2013-09-05 08:31:00,55.4,48.0,29.95,SSE,166,0.0,1.0,76,0.00,,,0.00,weatherlink.com 1.10,2013-09-05 14:31:00,
2013-09-05 08:47:00,56.7,49.0,29.95,SSE,166,0.0,0.0,74,0.00,,,0.00,weatherlink.com 1.10,2013-09-05 14:47:00,
2013-09-05 09:16:00,58.5,49.0,29.95,SSE,166,0.0,1.0,71,0.00,,,0.00,weatherlink.com 1.10,2013-09-05 15:16:00,
2013-09-05 09:31:00,59.0,50.0,29.94,SSE,166,0.0,0.0,71,0.00,,,0.00,weatherlink.com 1.10,2013-09-05 15:31:00,
2013-09-05 09:46:00,61.4,49.0,29.95,SSE,166,0.0,1.0,65,0.00,,,0.00,weatherlink.com 1.10,2013-09-05 15:46:00,
2013-09-05 10:01:00,63.7,51.0,29.94,SSE,166,0.0,1.0,63,0.00,,,0.00,weatherlink.com 1.10,2013-09-05 16:01:00,
2013-09-05 10:16:00,66.5,52.0,29.94,SSE,166,0.0,1.0,60,0.00,,,0.00,weatherlink.com 1.10,2013-09-05 16:16:00,
2013-09-05 10:31:00,67.7,52.0,29.93,ENE,57,0.0,1.0,57,0.00,,,0.00,weatherlink.com 1.10,2013-09-05 16:31:00,
2013-09-05 10:46:00,69.4,51.0,29.93,SE,128,0.0,6.0,53,0.00,,,0.00,weatherlink.com 1.10,2013-09-05 16:46:00,
2013-09-05 11:02:00,71.1,50.0,29.93,South,171,0.0,4.0,48,0.00,,,0.00,weatherlink.com 1.10,2013-09-05 17:02:00,
2013-09-05 11:17:00,72.3,48.0,29.92,ESE,118,2.0,7.0,43,0.00,,,0.00,weatherlink.com 1.10,2013-09-05 17:17:00,
2013-09-05 11:32:00,73.6,48.0,29.92,ESE,121,2.0,5.0,40,0.00,,,0.00,weatherlink.com 1.10,2013-09-05 17:32:00,
2013-09-05 11:47:00,74.6,41.0,29.92,East,99,0.0,5.0,30,0.00,,,0.00,weatherlink.com 1.10,2013-09-05 17:47:00,
2013-09-05 12:02:00,75.3,43.0,29.92,SE,135,0.0,10.0,32,0.00,,,0.00,weatherlink.com 1.10,2013-09-05 18:02:00,
2013-09-05 12:17:00,75.8,40.0,29.91,South,176,1.0,9.0,28,0.00,,,0.00,weatherlink.com 1.10,2013-09-05 18:17:00,
2013-09-05 12:32:00,75.9,38.0,29.91,SE,132,0.0,9.0,25,0.00,,,0.00,weatherlink.com 1.10,2013-09-05 18:32:00,
2013-09-05 12:48:00,76.8,38.0,29.91,SE,142,3.0,8.0,25,0.00,,,0.00,weatherlink.com 1.10,2013-09-05 18:48:00,
2013-09-05 13:03:00,76.4,38.0,29.91,SSE,165,4.0,6.0,25,0.00,,,0.00,weatherlink.com 1.10,2013-09-05 19:03:00,
2013-09-05 13:17:00,76.8,38.0,29.91,SSE,150,0.0,7.0,25,0.00,,,0.00,weatherlink.com 1.10,2013-09-05 19:17:00,
2013-09-05 13:32:00,77.0,37.0,29.91,SSW,200,1.0,9.0,24,0.00,,,0.00,weatherlink.com 1.10,2013-09-05 19:32:00,
2013-09-05 13:47:00,77.4,37.0,29.91,SSW,203,0.0,10.0,23,0.00,,,0.00,weatherlink.com 1.10,2013-09-05 19:47:00,
2013-09-05 14:02:00,77.2,38.0,29.90,South,184,2.0,10.0,24,0.00,,,0.00,weatherlink.com 1.10,2013-09-05 20:02:00,
2013-09-05 14:18:00,77.8,36.0,29.90,South,188,0.0,8.0,22,0.00,,,0.00,weatherlink.com 1.10,2013-09-05 20:18:00,
2013-09-05 14:33:00,77.8,35.0,29.89,NE,41,0.0,6.0,21,0.00,,,0.00,weatherlink.com 1.10,2013-09-05 20:33:00,
2013-09-05 14:49:00,78.5,38.0,29.89,ESE,114,2.0,10.0,23,0.00,,,0.00,weatherlink.com 1.10,2013-09-05 20:49:00,
2013-09-05 15:05:00,77.8,36.0,29.89,SE,138,4.0,13.0,22,0.00,,,0.00,weatherlink.com 1.10,2013-09-05 21:05:00,
2013-09-05 15:18:00,77.7,34.0,29.88,SSW,212,4.0,10.0,20,0.00,,,0.00,weatherlink.com 1.10,2013-09-05 21:18:00,
2013-09-05 15:33:00,77.4,34.0,29.87,ESE,111,1.0,8.0,21,0.00,,,0.00,weatherlink.com 1.10,2013-09-05 21:33:00,
2013-09-05 15:49:00,76.7,36.0,29.87,SSW,208,0.0,8.0,23,0.00,,,0.00,weatherlink.com 1.10,2013-09-05 21:49:00,
2013-09-05 16:03:00,75.5,40.0,29.86,ESE,119,0.0,9.0,28,0.00,,,0.00,weatherlink.com 1.10,2013-09-05 22:03:00,
2013-09-05 16:18:00,75.0,37.0,29.85,East,94,0.0,10.0,25,0.00,,,0.00,weatherlink.com 1.10,2013-09-05 22:18:00,
2013-09-05 16:34:00,75.2,36.0,29.84,ESE,102,1.0,9.0,24,0.00,,,0.00,weatherlink.com 1.10,2013-09-05 22:34:00,
2013-09-05 16:49:00,75.3,35.0,29.83,SE,128,2.0,13.0,23,0.00,,,0.00,weatherlink.com 1.10,2013-09-05 22:49:00,
2013-09-05 17:05:00,74.7,41.0,29.83,SSE,152,5.0,15.0,30,0.00,,,0.00,weatherlink.com 1.10,2013-09-05 23:05:00,
2013-09-05 17:19:00,73.9,42.0,29.82,ESE,109,8.0,16.0,32,0.00,,,0.00,weatherlink.com 1.10,2013-09-05 23:19:00,
2013-09-05 17:34:00,72.7,44.0,29.82,NE,34,5.0,14.0,36,0.00,,,0.00,weatherlink.com 1.10,2013-09-05 23:34:00,
2013-09-05 17:49:00,71.9,43.0,29.82,SE,128,5.0,17.0,36,0.00,,,0.00,weatherlink.com 1.10,2013-09-05 23:49:00,
2013-09-05 18:05:00,71.3,42.0,29.81,ESE,105,4.0,16.0,35,0.00,,,0.00,weatherlink.com 1.10,2013-09-06 00:05:00,
2013-09-05 18:19:00,70.6,42.0,29.81,ESE,107,5.0,18.0,36,0.00,,,0.00,weatherlink.com 1.10,2013-09-06 00:19:00,
2013-09-05 18:34:00,69.8,42.0,29.80,East,91,3.0,16.0,37,0.00,,,0.00,weatherlink.com 1.10,2013-09-06 00:34:00,
2013-09-05 18:50:00,68.9,41.0,29.80,ESE,107,2.0,17.0,37,0.00,,,0.00,weatherlink.com 1.10,2013-09-06 00:50:00,
2013-09-05 19:05:00,67.7,42.0,29.81,East,85,6.0,14.0,39,0.00,,,0.00,weatherlink.com 1.10,2013-09-06 01:05:00,
2013-09-05 19:20:00,66.7,42.0,29.80,ESE,110,0.0,13.0,40,0.00,,,0.00,weatherlink.com 1.10,2013-09-06 01:20:00,
2013-09-05 19:35:00,65.6,42.0,29.81,ESE,109,0.0,11.0,42,0.00,,,0.00,weatherlink.com 1.10,2013-09-06 01:35:00,
2013-09-05 19:50:00,64.6,42.0,29.81,SE,132,0.0,8.0,44,0.00,,,0.00,weatherlink.com 1.10,2013-09-06 01:50:00,
2013-09-05 20:05:00,63.9,41.0,29.82,SE,145,2.0,10.0,43,0.00,,,0.00,weatherlink.com 1.10,2013-09-06 02:05:00,
2013-09-05 20:20:00,63.4,41.0,29.81,SE,145,0.0,3.0,44,0.00,,,0.00,weatherlink.com 1.10,2013-09-06 02:20:00,
2013-09-05 20:38:00,63.2,39.0,29.82,ESE,111,3.0,10.0,41,0.00,,,0.00,weatherlink.com 1.10,2013-09-06 02:38:00,
2013-09-05 20:51:00,63.4,40.0,29.82,East,90,0.0,8.0,42,0.00,,,0.00,weatherlink.com 1.10,2013-09-06 02:51:00,
2013-09-05 21:05:00,62.7,38.0,29.82,ESE,117,2.0,5.0,41,0.00,,,0.00,weatherlink.com 1.10,2013-09-06 03:05:00,
2013-09-05 21:20:00,62.2,37.0,29.83,SE,138,2.0,8.0,40,0.00,,,0.00,weatherlink.com 1.10,2013-09-06 03:20:00,
2013-09-05 21:35:00,62.5,38.0,29.83,East,99,2.0,9.0,41,0.00,,,0.00,weatherlink.com 1.10,2013-09-06 03:35:00,
2013-09-05 21:50:00,61.8,39.0,29.83,ESE,115,0.0,1.0,44,0.00,,,0.00,weatherlink.com 1.10,2013-09-06 03:50:00,
2013-09-05 22:06:00,60.7,38.0,29.84,SSE,160,0.0,1.0,44,0.00,,,0.00,weatherlink.com 1.10,2013-09-06 04:06:00,
2013-09-05 22:21:00,59.7,39.0,29.83,WSW,242,0.0,1.0,47,0.00,,,0.00,weatherlink.com 1.10,2013-09-06 04:21:00,
2013-09-05 22:36:00,59.1,39.0,29.83,WSW,242,0.0,2.0,47,0.00,,,0.00,weatherlink.com 1.10,2013-09-06 04:36:00,
2013-09-05 22:52:00,60.3,39.0,29.84,WSW,242,0.0,0.0,45,0.00,,,0.00,weatherlink.com 1.10,2013-09-06 04:52:00,
2013-09-05 23:06:00,59.9,39.0,29.83,WSW,242,0.0,0.0,46,0.00,,,0.00,weatherlink.com 1.10,2013-09-06 05:06:00,
2013-09-05 23:21:00,59.0,38.0,29.83,WSW,242,0.0,0.0,45,0.00,,,0.00,weatherlink.com 1.10,2013-09-06 05:21:00,
2013-09-05 23:36:00,59.0,38.0,29.83,WSW,242,0.0,0.0,45,0.00,,,0.00,weatherlink.com 1.10,2013-09-06 05:36:00,
2013-09-05 23:51:00,58.8,38.0,29.83,WSW,242,1.0,1.0,46,0.00,,,0.00,weatherlink.com 1.10,2013-09-06 05:51:00,